Location: Unspecified
(51.0950°N, 12.9690°E)
Time: 22:23:13
(UTC+00:00)

Meteor 2-10 Rocket - Pass Details

Date: 28 October 2021
Orbit: 733 x 885 km, 81.2° (Epoch: 01 December)

Event Time Altitude Azimuth Distance (km) Brightness Sun altitude
Rises 17:33:32 0° 195° (SSW) 3,362 7.0 -16.9°
Reaches altitude 10° 17:35:58 10° 197° (SSW) 2,410 6.3 -17.3°
Maximum altitude 17:41:24 77° 283° (WNW) 822 3.7 -18.1°
Drops below altitude 10° 17:46:40 10° 10° (N) 2,327 5.9 -18.9°
Sets 17:48:59 0° 12° (NNE) 3,238 6.6 -19.3°
